"2009-05-14 00:00:00",884476,10.8,162.3,0.547,0.138,15.46,106.3197,15.45,16.48,24.04,0,110.5,13.3,16.26,124.3
"2009-05-14 00:00:30",884477,11.07,160.9,1.198,0.178,15.33,106.3056,15.42,16.48,24.26,0,110.5,13.3,16.22,122.9
"2009-05-14 00:01:00",884478,11.04,159.5,0.855,0.101,15.24,106.2859,15.37,16.44,24.19,0,110.5,13.3,16.17,121.5
"2009-05-14 00:01:30",884479,10.99,160.3,0.803,0.078,15.41,106.2859,15.37,16.43,24.63,0,110.5,13.3,16.17,122.3
"2009-05-14 00:02:00",884480,10.83,161.5,1.457,0.18,15.42,106.2808,15.35,16.41,24.77,0,110.5,13.3,16.16,123.5
"2009-05-14 00:02:30",884481,11.02,161.3,0.683,0.39,15.27,106.2586,15.3,16.37,24.28,0,110.5,13.3,16.10,123.3
"2009-05-14 00:03:00",884482,10.45,162.3,2.191,0.193,15.29,106.2521,15.28,16.36,23.88,0,110.5,13.3,16.08,124.3
"2009-05-14 00:03:30",884483,10.4,159.8,2.016,0.341,15.22,106.2521,15.28,16.33,23.88,0,110.5,13.3,16.08,121.8
"2009-05-14 00:04:00",884484,10.81,160.6,1.611,0.425,15.35,106.2459,15.26,16.31,24.12,0,110.5,13.3,16.07,122.6
"2009-05-14 00:04:30",884485,10.67,162.2,0.553,0.146,15.5,106.2237,15.21,16.29,24.83,0,110.5,13.29,16.01,124.2
"2009-05-14 00:05:00",884486,10.7,161.4,0.867,0.17,15.44,106.2183,15.19,16.28,25.14,0,110.5,13.29,16.00,123.4
"2009-05-14 00:05:30",884487,10.57,163,0.984,0.155,15.35,106.2183,15.19,16.28,24.57,0,110.5,13.29,16.00,125.0
"2009-05-14 00:06:00",884488,10.44,162,1.587,0.214,15.33,106.2183,15.19,16.23,24.44,0,110.5,13.29,16.00,124.0
"2009-05-14 00:06:30",884489,10.21,162.7,2.711,0.288,15.37,106.2155,15.18,16.24,24.05,0,110.5,13.29,15.99,124.7
"2009-05-14 00:07:00",884490,10.29,161.9,1.36,0.278,15.23,106.2051,15.16,16.22,24.11,0,110.5,13.3,15.96,123.9
"2009-05-14 00:07:30",884491,10.08,161,2.869,0.297,15.27,106.1854,15.11,16.21,23.99,0,110.5,13.3,15.91,123.0
"2009-05-14 00:08:00",884492,10.42,161.1,1.922,0.453,15.24,106.1845,15.11,16.19,23.66,0,110.5,13.3,15.91,123.1
"2009-05-14 00:08:30",884493,9.96,161.5,1.503,0.214,15.22,106.1845,15.11,16.16,23.73,0,110.5,13.3,15.91,123.5
"2009-05-14 00:09:00",884494,10.43,160.4,1.194,0.306,15.24,106.1837,15.1,16.16,23.52,0,110.5,13.3,15.91,122.4
"2009-05-14 00:09:30",884495,10.33,160.2,1.543,0.317,15.23,106.1659,15.06,16.15,23.68,0,110.5,13.3,15.86,122.2
"2009-05-14 00:10:00",884496,10.97,159,2.176,0.403,15.34,106.1544,15.03,16.13,24.11,0,110.5,13.3,15.83,121.0
"2009-05-14 00:10:30",884497,10.32,160.3,2.696,0.247,15.31,106.1507,15.02,16.12,23.82,0,110.5,13.31,15.82,122.3
"2009-05-14 00:11:00",884498,10.66,161.2,1.621,0.354,15.34,106.1507,15.02,16.11,23.63,0,110.5,13.31,15.82,123.2
"2009-05-14 00:11:30",884499,10.79,157.8,2.132,0.393,15.3,106.1507,15.02,16.09,23.73,0,110.5,13.31,15.82,119.8
"2009-05-14 00:12:00",884500,10.41,160,3.164,0.463,15.3,106.1507,15.02,16.08,23.12,0,110.5,13.31,15.82,122.0
"2009-05-14 00:12:30",884501,10.28,161,1.988,0.298,15.4,106.1507,15.02,16.07,23.45,0,110.5,13.31,15.82,123.0
"2009-05-14 00:13:00",884502,10.27,161.1,1.942,0.418,15.42,106.1513,15.02,16.05,23.99,0,110.5,13.31,15.82,123.1
"2009-05-14 00:13:30",884503,10.55,164.6,1.755,0.318,15.61,106.1507,15.02,16.05,25.04,0,110.5,13.31,15.82,126.6
"2009-05-14 00:14:00",884504,10.53,161.8,2.683,0.249,15.43,106.1512,15.02,16.04,24.86,0,110.5,13.31,15.82,123.8
"2009-05-14 00:14:30",884505,10.23,164.5,1.941,0.299,15.58,106.1537,15.03,16.04,25.11,0,110.5,13.31,15.83,126.5
"2009-05-14 00:15:00",884506,10.54,161.5,2.025,0.209,15.4,106.1567,15.03,16.03,24.91,0,110.5,13.31,15.84,123.5
"2009-05-14 00:15:30",884507,10.41,161.4,1.396,0.234,15.39,106.1579,15.04,16.04,24.63,0,110.5,13.31,15.84,123.4
"2009-05-14 00:16:00",884508,10.27,164.1,1.362,0.216,15.4,106.1624,15.05,16.05,24.53,0,110.5,13.31,15.85,126.1
"2009-05-14 00:16:30",884509,10.29,159.2,1.709,0.213,15.2,106.1642,15.05,16.03,23.93,0,110.5,13.31,15.86,121.2
"2009-05-14 00:17:00",884510,10.36,161.8,1.472,0.219,15.26,106.1666,15.06,16.02,23.52,0,110.5,13.31,15.86,123.8
"2009-05-14 00:17:30",884511,10.52,164.9,0.826,0.182,15.43,106.1711,15.07,16.04,24.33,0,110.5,13.31,15.88,126.9
"2009-05-14 00:18:00",884512,10.58,162.8,1.469,0.161,15.35,106.1743,15.08,16.02,24.28,0,110.5,13.31,15.88,124.8
"2009-05-14 00:18:30",884513,10.38,163.7,1.026,0.136,15.38,106.1776,15.09,16.03,23.83,0,110.5,13.31,15.89,125.7
"2009-05-14 00:19:00",884514,10.45,161.8,3.038,0.249,15.35,106.1764,15.08,16.03,24.33,0,110.5,13.31,15.89,123.8
"2009-05-14 00:19:30",884515,10.34,159.1,1.778,0.158,15.22,106.1782,15.09,16.04,23.48,0,110.5,13.31,15.89,121.1
"2009-05-14 00:20:00",884516,10.65,157.8,2.308,0.237,15.19,106.1813,15.1,16.03,23.03,0,110.5,13.31,15.90,119.8
"2009-05-14 00:20:30",884517,10.07,158.9,1.41,0.234,15.18,106.1754,15.08,16.02,22.42,0,110.5,13.31,15.89,120.9
"2009-05-14 00:21:00",884518,9.9,157.2,1.7,0.442,15.17,106.167,15.06,16.04,22.59,0,110.5,13.31,15.87,119.2
"2009-05-14 00:21:30",884519,9.96,156.4,1.499,0.324,15.17,106.1566,15.03,16.02,22.26,0,110.5,13.3,15.84,118.4
"2009-05-14 00:22:00",884520,9.83,154.7,1.362,0.345,15.09,106.1531,15.02,16.01,21.69,0,110.5,13.3,15.83,116.7
"2009-05-14 00:22:30",884521,10.49,155.7,1.723,0.167,15.04,106.1525,15.02,16.01,21.03,0,110.5,13.3,15.83,117.7
"2009-05-14 00:23:00",884522,10.07,152.4,2.054,0.246,14.93,106.1528,15.02,16.01,20.71,0,110.5,13.3,15.83,114.4
"2009-05-14 00:23:30",884523,9.99,151.6,1.178,0.16,14.95,106.1528,15.02,16,20.08,0,110.5,13.31,15.83,113.6
"2009-05-14 00:24:00",884524,10.31,152,1.875,0.204,14.99,106.1528,15.02,16,19.86,0,110.5,13.31,15.83,114.0
"2009-05-14 00:24:30",884525,10.26,154.4,2.391,0.254,15.05,106.1486,15.01,15.99,20,0,110.5,13.31,15.82,116.4
"2009-05-14 00:25:00",884526,10.26,154.3,1.578,0.201,15.03,106.1387,14.99,15.98,20.13,0,110.5,13.31,15.79,116.3
"2009-05-14 00:25:30",884527,10.4,152.6,0.997,0.157,14.95,106.1227,14.95,15.97,19.68,0,110.5,13.31,15.75,114.6
"2009-05-14 00:26:00",884528,10.74,153.3,1.088,0.146,15.05,106.119,14.94,15.96,19.85,0,110.5,13.32,15.74,115.3
"2009-05-14 00:26:30",884529,10.38,152.9,1.677,0.118,15.03,106.119,14.94,15.94,20.13,0,110.5,13.32,15.74,114.9
"2009-05-14 00:27:00",884530,10.49,152.4,2.189,0.233,15.04,106.1156,14.93,15.92,20.22,0,110.5,13.32,15.73,114.4
"2009-05-14 00:27:30",884531,10.28,153.4,1.579,0.283,15.03,106.0981,14.88,15.92,20.01,0,110.5,13.32,15.69,115.4
"2009-05-14 00:28:00",884532,10.49,153,1.32,0.267,15.08,106.0852,14.85,15.91,20.48,0,110.5,13.32,15.65,115.0
"2009-05-14 00:28:30",884533,10.63,153.7,1.041,0.107,15.03,106.0852,14.85,15.89,20.51,0,110.5,13.32,15.65,115.7
"2009-05-14 00:29:00",884534,10.83,153.9,1.129,0.153,15.04,106.0852,14.85,15.88,20.34,0,110.5,13.32,15.65,115.9
"2009-05-14 00:29:30",884535,10.81,154.6,1.443,0.13,15.08,106.0829,14.85,15.86,20.4,0,110.5,13.32,15.65,116.6
"2009-05-14 00:30:00",884536,11.08,155.9,1.301,0.262,15.09,106.07,14.81,15.85,20.51,0,110.5,13.32,15.62,117.9
"2009-05-14 00:30:30",884537,10.88,153.9,1.356,0.132,15.03,106.055,14.77,15.83,20.43,0,110.5,13.32,15.58,115.9
"2009-05-14 00:31:00",884538,11.02,154.2,0.696,0.131,15.02,106.0514,14.76,15.83,19.88,0,110.5,13.32,15.57,116.2
"2009-05-14 00:31:30",884539,11.17,153.5,1.74,0.127,14.98,106.0514,14.76,15.8,19.71,0,110.5,13.32,15.57,115.5
"2009-05-14 00:32:00",884540,11.12,154.4,1.224,0.229,14.98,106.0505,14.76,15.8,19.45,0,110.5,13.32,15.57,116.4
"2009-05-14 00:32:30",884541,11.16,153.4,1.147,0.152,14.97,106.0469,14.75,15.78,19.42,0,110.5,13.32,15.56,115.4
"2009-05-14 00:33:00",884542,11.4,154.5,1.014,0.191,15.06,106.0339,14.72,15.77,19.82,0,110.5,13.32,15.52,116.5
"2009-05-14 00:33:30",884543,11.26,154.6,0.967,0.287,15.03,106.019,14.68,15.76,19.81,0,110.5,13.32,15.48,116.6
"2009-05-14 00:34:00",884544,11.23,154.6,1.463,0.278,15,106.0176,14.68,15.75,19.88,0,110.5,13.32,15.48,116.6
"2009-05-14 00:34:30",884545,11.38,154.8,1.635,0.204,14.99,106.0176,14.68,15.74,20.08,0,110.5,13.32,15.48,116.8
"2009-05-14 00:35:00",884546,11.28,150.8,1.5,0.315,14.98,106.0176,14.68,15.72,19.23,0,110.5,13.32,15.48,112.8
"2009-05-14 00:35:30",884547,10.74,151.9,3.035,0.246,14.99,106.0176,14.68,15.71,19.31,0,110.5,13.32,15.48,113.9
"2009-05-14 00:36:00",884548,11.23,154.7,1.415,0.187,15.03,106.0176,14.68,15.71,19.94,0,110.5,13.32,15.48,116.7
"2009-05-14 00:36:30",884549,11.42,153.6,2.419,0.361,15.06,106.0176,14.68,15.7,19.98,0,110.5,13.32,15.48,115.6
"2009-05-14 00:37:00",884550,11.39,151.2,2.475,0.424,15.04,106.0164,14.67,15.69,19.88,0,110.5,13.32,15.48,113.2
"2009-05-14 00:37:30",884551,10.99,150.2,1.441,0.218,15.13,106.0117,14.66,15.69,19.36,0,110.5,13.32,15.47,112.2
"2009-05-14 00:38:00",884552,11.15,150.8,1.721,0.304,15.11,106.0088,14.66,15.68,19.62,0,110.5,13.32,15.46,112.8
"2009-05-14 00:38:30",884553,11.38,149,2.697,0.315,15.18,106.0074,14.65,15.67,19.71,0,110.5,13.32,15.45,111.0
"2009-05-14 00:39:00",884554,11.57,151.3,2.931,0.29,15.26,106.0032,14.64,15.66,20.24,0,110.5,13.32,15.44,113.3
"2009-05-14 00:39:30",884555,10.87,152.1,2.282,0.245,15.16,106.0018,14.64,15.66,20.42,0,110.5,13.32,15.44,114.1
"2009-05-14 00:40:00",884556,11.21,152.5,1.443,0.413,15.1,106.0007,14.63,15.66,19.97,0,110.5,13.32,15.44,114.5
"2009-05-14 00:40:30",884557,11.24,149.8,1.982,0.284,15.08,105.9923,14.61,15.65,19.58,0,110.5,13.32,15.42,111.8
"2009-05-14 00:41:00",884558,11.36,153.5,1.938,0.255,15.06,105.9878,14.6,15.66,19.18,0,110.5,13.32,15.40,115.5
"2009-05-14 00:41:30",884559,11.58,153.8,1.245,0.423,15.15,105.9858,14.6,15.65,19.45,0,110.5,13.32,15.40,115.8
"2009-05-14 00:42:00",884560,12.27,148.7,0.969,0.438,15.13,105.9853,14.6,15.66,19.07,0,110.5,13.32,15.40,110.7
"2009-05-14 00:42:30",884561,11.9,146.8,1.065,0.426,15.11,105.9874,14.6,15.63,18.77,0,110.5,13.32,15.40,108.8
"2009-05-14 00:43:00",884562,10.67,153.3,2.751,0.234,15.29,105.9885,14.6,15.65,20.17,0,110.5,13.33,15.41,115.3
"2009-05-14 00:43:30",884563,11.23,153.8,1.429,0.607,15.21,105.9912,14.61,15.65,21.05,0,110.5,13.33,15.41,115.8
"2009-05-14 00:44:00",884564,11.85,152.4,1.211,0.16,15.17,105.9927,14.61,15.64,20.62,0,110.5,13.33,15.42,114.4
"2009-05-14 00:44:30",884565,11.36,154.5,2.723,0.328,15.31,105.9981,14.63,15.64,21.27,0,110.5,13.33,15.43,116.5
"2009-05-14 00:45:00",884566,11.87,148.1,3.014,0.52,15.19,105.999,14.63,15.62,20.73,0,110.5,13.33,15.43,110.1
"2009-05-14 00:45:30",884567,10.53,147.1,1.881,0.237,15.09,105.9981,14.63,15.63,19.41,0,110.4,13.33,15.43,109.1
"2009-05-14 00:46:00",884568,11.12,150.2,2.238,0.366,15.16,105.9996,14.63,15.64,19.37,0,110.4,13.33,15.43,112.2
"2009-05-14 00:46:30",884569,11.61,149.4,1.635,0.423,15.13,106.0041,14.64,15.63,19.38,0,110.4,13.33,15.45,111.4
"2009-05-14 00:47:00",884570,11.41,149.8,2.794,0.291,15.19,106.0065,14.65,15.62,19.32,0,110.5,13.33,15.45,111.8
"2009-05-14 00:47:30",884571,11.57,149,2.089,0.378,15.18,106.0068,14.65,15.62,19.11,0,110.4,13.33,15.45,111.0
"2009-05-14 00:48:00",884572,11.41,145.3,2.468,0.239,15.14,106.008,14.65,15.62,18.55,0,110.4,13.33,15.46,107.3
"2009-05-14 00:48:30",884573,11.4,146.5,2.453,0.366,15.17,106.0109,14.66,15.62,18.59,0,110.4,13.33,15.46,108.5
"2009-05-14 00:49:00",884574,11.93,145.7,2.627,0.526,15.19,106.0142,14.67,15.62,19.24,0,110.4,13.33,15.47,107.7
"2009-05-14 00:49:30",884575,11,141.5,1.271,0.625,15.12,106.0139,14.67,15.62,18.93,0,110.4,13.33,15.47,103.5
"2009-05-14 00:50:00",884576,10.31,150.2,4.302,0.854,15.21,106.0163,14.67,15.62,19.07,0,110.4,13.33,15.48,112.2
"2009-05-14 00:50:30",884577,9.81,149.9,2.308,0.632,15.28,106.0166,14.68,15.62,21.3,0,110.4,13.33,15.48,111.9
"2009-05-14 00:51:00",884578,10.05,145.2,5.101,0.287,15.15,106.0172,14.68,15.62,20.98,0,110.4,13.33,15.48,107.2
"2009-05-14 00:51:30",884579,9.85,147.3,3.017,0.444,15.3,106.0181,14.68,15.63,21.06,0,110.4,13.33,15.48,109.3
"2009-05-14 00:52:00",884580,10.02,150.8,1.339,0.382,15.44,106.0196,14.68,15.63,22.26,0,110.4,13.33,15.49,112.8
"2009-05-14 00:52:30",884581,9.94,149.4,2.449,0.258,15.31,106.0193,14.68,15.64,22.98,0,110.4,13.33,15.49,111.4
"2009-05-14 00:53:00",884582,9.47,149.8,1.8,0.328,15.32,106.0196,14.68,15.65,22.42,0,110.4,13.33,15.49,111.8
"2009-05-14 00:53:30",884583,10.01,160.2,2.878,0.282,15.67,106.0199,14.68,15.65,23.96,0,110.4,13.33,15.49,122.2
"2009-05-14 00:54:00",884584,9.42,158.7,3.416,0.562,15.67,106.0354,14.72,15.67,25.09,0,110.4,13.33,15.53,120.7
"2009-05-14 00:54:30",884585,9.41,151.3,2.636,0.488,15.34,106.0464,14.75,15.66,23.74,0,110.4,13.33,15.56,113.3
"2009-05-14 00:55:00",884586,9.61,150.5,3.191,0.382,15.31,106.0526,14.77,15.67,23.06,0,110.4,13.33,15.57,112.5
"2009-05-14 00:55:30",884587,9.42,150.5,3.87,0.39,15.25,106.0534,14.77,15.67,21.85,0,110.4,13.33,15.57,112.5
"2009-05-14 00:56:00",884588,8.87,150.9,4.248,0.58,15.22,106.0534,14.77,15.69,22.02,0,110.4,13.33,15.57,112.9
"2009-05-14 00:56:30",884589,8.68,149.7,4.993,0.407,15.05,106.0534,14.77,15.67,20.75,0,110.4,13.33,15.57,111.7
"2009-05-14 00:57:00",884590,9,141.6,3.774,0.584,15.04,106.0534,14.77,15.7,20.29,0,110.4,13.33,15.57,103.6
"2009-05-14 00:57:30",884591,8.39,142.8,4.224,0.789,15.02,106.0534,14.77,15.69,20.57,0,110.4,13.33,15.57,104.8
"2009-05-14 00:58:00",884592,9.11,139.3,2.278,0.239,14.7,106.0534,14.77,15.71,19.76,0,110.4,13.33,15.57,101.3
"2009-05-14 00:58:30",884593,8.38,153.5,6.082,0.919,15.13,106.0534,14.77,15.72,20.08,0,110.4,13.33,15.57,115.5
"2009-05-14 00:59:00",884594,7.932,152.1,2.952,0.465,15.22,106.0531,14.77,15.71,21.03,0,110.4,13.33,15.57,114.1
"2009-05-14 00:59:30",884595,8.6,147.1,3.313,0.756,15.07,106.0529,14.77,15.7,21.08,0,110.4,13.33,15.57,109.1
"2009-05-14 01:00:00",884596,8.89,143,3.077,0.367,15.07,106.0503,14.76,15.69,20.77,0,110.4,13.33,15.57,105.0
"2009-05-14 01:00:30",884597,8.13,147.3,5.295,0.497,15.01,106.047,14.75,15.71,20.37,0,110.4,13.33,15.56,109.3
"2009-05-14 01:01:00",884598,9.32,151.8,5.998,1.019,15.16,106.0458,14.75,15.72,20.13,0,110.4,13.34,15.55,113.8
"2009-05-14 01:01:30",884599,8.29,143.6,3.56,0.442,14.99,106.043,14.74,15.69,19.74,0,110.4,13.34,15.55,105.6
"2009-05-14 01:02:00",884600,7.969,149.5,6.18,0.457,15.06,106.0314,14.71,15.7,19.35,0,110.4,13.34,15.52,111.5
"2009-05-14 01:02:30",884601,8.39,150.8,9,0.477,14.97,106.021,14.69,15.68,19.59,0,110.4,13.34,15.49,112.8
"2009-05-14 01:03:00",884602,9.41,133.4,5.867,0.408,14.35,106.0196,14.68,15.68,17.62,0,110.4,13.34,15.49,95.4
"2009-05-14 01:03:30",884603,13.61,131.4,5.043,1.892,17.32,106.0191,14.68,16,15.9,0,110.3,13.3,15.49,93.4
"2009-05-14 01:04:00",884604,15.37,126.1,5.49,0.721,17.96,105.99,14.61,16.01,14.44,0,110.4,13.3,15.41,88.1
"2009-05-14 01:04:30",884605,16.26,121.8,3.863,0.754,17.23,105.9525,14.51,15.98,13.57,0,110.4,13.29,15.31,83.8
"2009-05-14 01:05:00",884606,14.87,114.9,6.204,1.583,15.28,105.9108,14.4,15.87,13.09,0,110.4,13.29,15.21,76.9
"2009-05-14 01:05:30",884607,13.47,106.3,3.233,0.497,11.79,105.8677,14.29,15.51,12.65,0,110.4,13.33,15.10,68.3
"2009-05-14 01:06:00",884608,12.74,105,1.185,0.325,11.74,105.828,14.19,15.41,12.51,0,110.4,13.33,14.99,67.0
"2009-05-14 01:06:30",884609,11.96,103.1,1.372,0.177,12.27,105.7871,14.09,15.34,12.53,0,110.4,13.33,14.89,65.1
"2009-05-14 01:07:00",884610,11.98,105.3,5.869,0.808,13.54,105.7457,13.98,15.3,12.55,0,110.4,13.29,14.78,67.3
"2009-05-14 01:07:30",884611,12.13,106.4,6.637,1.437,14.51,105.7045,13.88,15.24,12.57,0,110.4,13.29,14.68,68.4
"2009-05-14 01:08:00",884612,13.82,113.2,3.969,0.792,17.8,105.6687,13.78,15.43,12.87,0,110.4,13.29,14.58,75.2
"2009-05-14 01:08:30",884613,13.61,111.3,4.055,0.81,17.48,105.6361,13.7,15.34,12.89,0,110.4,13.29,14.50,73.3
"2009-05-14 01:09:00",884614,13.27,107.2,7.047,1.387,15.76,105.6096,13.63,15.14,12.85,0,110.4,13.29,14.43,69.2
"2009-05-14 01:09:30",884615,11.44,100.8,2.015,0.29,11.54,105.58,13.56,14.86,12.76,0,110.4,13.33,14.36,62.8
"2009-05-14 01:10:00",884616,11.44,104.3,1.266,0.398,11.65,105.5526,13.49,14.78,12.79,0,110.4,13.33,14.29,66.3
"2009-05-14 01:10:30",884617,10.84,103.8,1.884,0.31,12.22,105.5276,13.42,14.72,12.86,0,110.4,13.32,14.22,65.8
"2009-05-14 01:11:00",884618,11.42,110.5,7.969,1.361,14.56,105.5109,13.38,14.8,13.04,0,110.4,13.29,14.18,72.5
"2009-05-14 01:11:30",884619,10.88,103.5,6.019,1.304,14.13,105.483,13.31,14.76,13.29,0,110.4,13.29,14.11,65.5
"2009-05-14 01:12:00",884620,12.7,110,7.125,1.27,16.12,105.4749,13.29,14.77,13.12,0,110.4,13.29,14.09,72.0
"2009-05-14 01:12:30",884621,11.89,119.9,7.433,1.399,16.99,105.4461,13.21,14.75,14.34,0,110.4,13.29,14.01,81.9
"2009-05-14 01:13:00",884622,10.39,127.6,7.873,1.34,15.93,105.4447,13.21,14.64,16.43,0,110.4,13.29,14.01,89.6
"2009-05-14 01:13:30",884623,8.03,110,8.3,1.394,12.21,105.445,13.21,14.41,16.29,0,110.4,13.32,14.01,72.0
"2009-05-14 01:14:00",884624,10.38,102.6,1.619,0.307,11.67,105.445,13.21,14.38,14,0,110.4,13.32,14.01,64.6
"2009-05-14 01:14:30",884625,9.97,104.9,2.326,0.16,12.12,105.4453,13.21,14.35,13.13,0,110.4,13.33,14.01,66.9
"2009-05-14 01:15:00",884626,9.04,112.1,4.718,0.568,12.87,105.4453,13.21,14.36,13.42,0,110.4,13.33,14.01,74.1
"2009-05-14 01:15:30",884627,8.05,121.9,7.315,0.949,13.66,105.445,13.21,14.38,14.74,0,110.4,13.29,14.01,83.9
"2009-05-14 01:16:00",884628,8.96,121.7,7.004,1.742,15.55,105.4459,13.21,14.43,14.44,0,110.4,13.3,14.01,83.7
"2009-05-14 01:16:30",884629,7.106,112.9,9.03,1.222,13.65,105.4551,13.24,14.34,15.75,0,110.4,13.3,14.04,74.9
"2009-05-14 01:17:00",884630,11.28,114.4,5.073,1.059,16.65,105.4713,13.28,14.51,13.95,0,110.4,13.3,14.08,76.4
"2009-05-14 01:17:30",884631,11.13,116.2,5.415,1.061,16.59,105.4765,13.29,14.61,13.38,0,110.4,13.3,14.09,78.2
"2009-05-14 01:18:00",884632,10.5,114.3,5.838,1.321,15.38,105.4755,13.29,14.49,13.08,0,110.4,13.3,14.09,76.3
"2009-05-14 01:18:30",884633,8.21,114.2,5.194,0.671,11.93,105.4626,13.26,14.29,12.98,0,110.4,13.33,14.05,76.2
"2009-05-14 01:19:00",884634,9.01,114.1,7.904,1.389,11.67,105.4589,13.25,14.29,13.67,0,110.4,13.33,14.05,76.1
"2009-05-14 01:19:30",884635,9.16,116.1,4.352,1.495,13.07,105.4593,13.25,14.33,12.96,0,110.4,13.3,14.05,78.1
"2009-05-14 01:20:00",884636,10.11,107.4,5.675,0.951,12.91,105.4622,13.26,14.4,12.83,0,110.4,13.3,14.05,69.4
"2009-05-14 01:20:30",884637,11.01,109.8,6.943,1.297,13.91,105.4536,13.23,14.31,12.76,0,110.4,13.3,14.03,71.8
"2009-05-14 01:21:00",884638,11.51,119,8.18,1.238,15.46,105.4305,13.17,14.46,12.98,0,110.4,13.3,13.97,81.0
"2009-05-14 01:21:30",884639,13.21,121,4.335,0.773,16.57,105.427,13.17,14.53,12.95,0,110.4,13.3,13.96,83.0
"2009-05-14 01:22:00",884640,12.5,121.8,7.992,1.371,14.38,105.4017,13.1,14.38,13.03,0,110.4,13.3,13.90,83.8
"2009-05-14 01:22:30",884641,10.76,107.4,1.557,0.252,11.2,105.384,13.06,14.14,12.67,0,110.4,13.33,13.85,69.4
"2009-05-14 01:23:00",884642,10.65,107,1.595,0.247,11.3,105.3627,13,14.22,12.78,0,110.4,13.33,13.80,69.0
"2009-05-14 01:23:30",884643,11.47,111.6,6.116,1.5,13.29,105.337,12.94,14.11,12.77,0,110.4,13.3,13.73,73.6
"2009-05-14 01:24:00",884644,10.69,109.5,7.087,1.249,13.65,105.3124,12.87,14.25,13,0,110.3,13.3,13.67,71.5
"2009-05-14 01:24:30",884645,12.42,118.4,6.385,1.32,15.13,105.2962,12.83,14.14,13.02,0,110.4,13.3,13.63,80.4
"2009-05-14 01:25:00",884646,12.33,121.2,4.223,0.575,17.1,105.2765,12.78,14.25,13.29,0,110.4,13.31,13.58,83.2
"2009-05-14 01:25:30",884647,10.87,118.2,7.866,1.318,15.5,105.2568,12.73,14.12,13.47,0,110.4,13.3,13.53,80.2
"2009-05-14 01:26:00",884648,9.16,110.1,2.45,0.431,11.85,105.2427,12.69,13.83,13.41,0,110.3,13.34,13.49,72.1
"2009-05-14 01:26:30",884649,9.26,111.2,2.061,0.461,11.33,105.2433,12.7,13.83,13.39,0,110.4,13.33,13.49,73.2
"2009-05-14 01:27:00",884650,10.66,118.7,5.437,1.506,13.58,105.2362,12.68,13.85,13.29,0,110.3,13.3,13.47,80.7
"2009-05-14 01:27:30",884651,10.05,123.5,7.632,1.041,14.27,105.2109,12.61,13.89,13.51,0,110.3,13.3,13.41,85.5
"2009-05-14 01:28:00",884652,9.95,113.1,3.343,0.311,12.87,105.2097,12.61,13.83,13.57,0,110.3,13.33,13.41,75.1
"2009-05-14 01:28:30",884653,12.9,124.3,3.456,0.702,16.68,105.2097,12.61,13.98,13.58,0,110.3,13.3,13.41,86.3
"2009-05-14 01:29:00",884654,13.08,125.3,4.475,0.846,16.32,105.1976,12.58,13.99,13.58,0,110.3,13.3,13.37,87.3
"2009-05-14 01:29:30",884655,11.62,123.4,7.202,1.273,13.91,105.1765,12.52,13.82,13.46,0,110.3,13.3,13.32,85.4
"2009-05-14 01:30:00",884656,11.57,112.4,4.191,0.839,11.56,105.1734,12.52,13.6,13.23,0,110.3,13.3,13.31,74.4
"2009-05-14 01:30:30",884657,12.22,117.1,7.835,1.164,13.19,105.1449,12.44,13.68,13.37,0,110.3,13.3,13.24,79.1
"2009-05-14 01:31:00",884658,11.86,115.7,3.026,0.434,11.41,105.1387,12.43,13.59,13.32,0,110.3,13.3,13.22,77.7
"2009-05-14 01:31:30",884659,12.07,119.4,3.81,0.696,11.85,105.1122,12.36,13.62,13.35,0,110.3,13.3,13.15,81.4
"2009-05-14 01:32:00",884660,14.73,129.8,6.605,1.188,15.71,105.0953,12.32,13.76,13.56,0,110.3,13.3,13.11,91.8
"2009-05-14 01:32:30",884661,15.73,127.9,5.62,1.216,15.71,105.0741,12.26,13.71,13.53,0,110.3,13.31,13.06,89.9
"2009-05-14 01:33:00",884662,15.55,128.5,6.172,1.133,15.15,105.0513,12.2,13.63,13.39,0,110.3,13.31,13.00,90.5
"2009-05-14 01:33:30",884663,14.47,121.3,6.539,1.435,13.27,105.0383,12.17,13.42,13.18,0,110.3,13.31,12.96,83.3
"2009-05-14 01:34:00",884664,14.78,121.7,6.649,1.4,13.11,105.0082,12.09,13.42,13.18,0,110.3,13.31,12.89,83.7
"2009-05-14 01:34:30",884665,13.22,120,6.631,0.878,12.93,105.0059,12.09,13.37,13.15,0,110.3,13.31,12.88,82.0
"2009-05-14 01:35:00",884666,13.77,120.7,6.255,1.526,12.44,104.9797,12.02,13.22,13.16,0,110.3,13.31,12.81,82.7
"2009-05-14 01:35:30",884667,14.84,128.6,4.222,1.031,15.78,104.9729,12,13.47,13.49,0,110.3,13.31,12.80,90.6
"2009-05-14 01:36:00",884668,13.73,122.9,9.27,1.37,14.86,104.9611,11.97,13.37,13.68,0,110.3,13.31,12.77,84.9
"2009-05-14 01:36:30",884669,14.09,123.5,8.07,1.462,14.74,104.9391,11.92,13.3,13.48,0,110.3,13.31,12.71,85.5
"2009-05-14 01:37:00",884670,12.79,123.1,4.703,1.754,12.89,104.9388,11.92,13.16,13.47,0,110.3,13.31,12.71,85.1
"2009-05-14 01:37:30",884671,12.41,116,3.758,0.45,11.36,104.9151,11.86,13.05,13.52,0,110.3,13.31,12.65,78.0
"2009-05-14 01:38:00",884672,13.38,118.8,9.81,1.679,13.32,104.9053,11.83,13.01,13.38,0,110.3,13.31,12.62,80.8
"2009-05-14 01:38:30",884673,13.14,116.4,7.638,1.263,14.24,104.9042,11.83,13.23,13.62,0,110.3,13.31,12.62,78.4
"2009-05-14 01:39:00",884674,13.81,118.1,6.424,1.378,15.07,104.8825,11.77,13.15,13.57,0,110.3,13.31,12.56,80.1
"2009-05-14 01:39:30",884675,13.22,115.6,7.522,1.213,15.31,104.8723,11.75,13.14,13.61,0,110.3,13.31,12.54,77.6
"2009-05-14 01:40:00",884676,13.01,115.7,7.761,1.304,13.72,104.8744,11.75,12.99,13.49,0,110.3,13.31,12.54,77.7
"2009-05-14 01:40:30",884677,11.63,104,1.699,0.312,11.39,104.8733,11.75,12.92,13.45,0,110.3,13.35,12.54,66.0
"2009-05-14 01:41:00",884678,11.86,101.3,2.286,0.311,11.47,104.8654,11.73,12.85,13.34,0,110.3,13.35,12.52,63.3
"2009-05-14 01:41:30",884679,13.08,111.3,8.07,1.394,13.48,104.852,11.69,12.92,13.32,0,110.3,13.31,12.49,73.3
"2009-05-14 01:42:00",884680,13.03,117.2,9.79,1.332,14.5,104.8459,11.68,12.99,13.48,0,110.3,13.32,12.47,79.2
"2009-05-14 01:42:30",884681,13.83,116.9,6.487,1.323,15.09,104.8485,11.68,12.99,13.55,0,110.3,13.32,12.48,78.9
"2009-05-14 01:43:00",884682,14.04,120.7,5.525,0.952,15.45,104.8491,11.69,13.03,13.69,0,110.3,13.32,12.48,82.7
"2009-05-14 01:43:30",884683,12.74,115.4,7.366,1.401,13.65,104.8486,11.68,12.91,13.65,0,110.3,13.31,12.48,77.4
"2009-05-14 01:44:00",884684,12.46,106.5,3.637,0.703,11.12,104.8399,11.66,12.71,13.44,0,110.3,13.35,12.46,68.5
"2009-05-14 01:44:30",884685,12.73,114.3,6.252,0.962,13.38,104.8289,11.63,12.86,13.51,0,110.3,13.31,12.43,76.3
"2009-05-14 01:45:00",884686,12.88,109.4,4.978,0.96,11.95,104.8239,11.62,12.79,13.39,0,110.3,13.31,12.41,71.4
"2009-05-14 01:45:30",884687,14.13,119.1,5.838,1.295,14.85,104.8262,11.63,12.85,13.49,0,110.3,13.31,12.42,81.1
"2009-05-14 01:46:00",884688,13.92,116,6.189,1.272,15.3,104.8319,11.64,12.96,13.54,0,110.3,13.31,12.43,78.0
"2009-05-14 01:46:30",884689,14.25,119.8,5.085,1.057,15.37,104.8332,11.65,12.92,13.43,0,110.3,13.31,12.44,81.8
"2009-05-14 01:47:00",884690,12.98,112.4,7.855,1.13,12.76,104.8118,11.59,12.75,13.27,0,110.3,13.31,12.38,74.4
"2009-05-14 01:47:30",884691,13.63,111.7,6.475,1.179,12.48,104.8039,11.57,12.73,13.11,0,110.3,13.31,12.36,73.7
"2009-05-14 01:48:00",884692,13.45,107.5,7.29,1.179,11.98,104.8051,11.57,12.64,12.98,0,110.3,13.31,12.37,69.5